Hourly Weather Roundup
Issued by NWS Central Illinois

Home | Current Version | Previous Version | Text Only | Print | Product List | Glossary On
Versions: 1 2 3 4 5 6 7 8 9 10 11 12 13 14 15 16 17 18 19 20 21 22 23 24 25 26 27 28 29 30 31 32 33 34 35 36 37 38 39 40 41 42 43 44 45 46 47 48 49 50
455
NZUS43 KILX 201210
HWRILX

AREA WEATHER ROUNDUP
NATIONAL WEATHER SERVICE, LINCOLN IL
600 AM CST MON FEB 20 2017


CITY           SKY/WX    TMP DP  RH WIND       PRES   REMARKS
BLOOMINGTON    LGT RAIN  47  47 100 SE12      30.10S VSB 1/4
6HR MIN TEMP:  44; 6HR MAX TEMP:  48; 6HR PCP: TRACE;

CHAMPAIGN      FOG       44  43  96 SE10      30.13S VSB 1/4
6HR MIN TEMP:  44; 6HR MAX TEMP:  49;

DECATUR        FOG       49  48  97 SE9       30.10F VSB 1/2
6HR MIN TEMP:  48; 6HR MAX TEMP:  50;

EFFINGHAM      FOG       46  46 100 E7        30.13F VSB 1
6HR MIN TEMP:  46; 6HR MAX TEMP:  50;

FLORA          FOG       46  46  99 SE6       30.12F VSB 1/2
6HR MIN TEMP:  46; 6HR MAX TEMP:  49;

GALESBURG      FOG       49  49 100 SE7         N/A  VSB 3/4
6HR MIN TEMP:  48; 6HR MAX TEMP:  54;

JACKSONVILLE   MOCLDY    49  49  97 E10       30.03F FOG
6HR MIN TEMP:  47; 6HR MAX TEMP:  55;

LACON          CLOUDY    45  45 100 S7        30.07S FOG
6HR MIN TEMP:  45; 6HR MAX TEMP:  50;

LAWRENCEVILLE  FOG       41  40  96 E5        30.17S VSB 1/4
6HR MIN TEMP:  40; 6HR MAX TEMP:  43;

LITCHFIELD     PTCLDY    50  50 100 SE13      30.06S FOG
6HR MIN TEMP:  49; 6HR MAX TEMP:  50;

$$


CITY           SKY/WX    TMP DP  RH WIND       PRES   REMARKS
LINCOLN        DRZL/FOG  49  49 100 SE9       30.08F VSB 1/2
6HR MIN TEMP:  47; 6HR MAX TEMP:  49;

MACOMB         CLOUDY    50  49  97 SE12      30.04S FOG
6HR MIN TEMP:  49; 6HR MAX TEMP:  51;

MATTOON        FOG       46  46 100 SE9       30.12S VSB 1/4
6HR MIN TEMP:  46; 6HR MAX TEMP:  49;

MT CARMEL AP   FOG       40  40  97 E6        30.16R VSB 1/4
6HR MIN TEMP:  40; 6HR MAX TEMP:  43;

OLNEY-NOBLE AP CLOUDY    43  43 100 E5        30.14S FOG
PARIS          FOG       41  41 100 SE6       30.16S VSB 1/4
6HR MIN TEMP:  41; 6HR MAX TEMP:  46;

PEORIA         FOG       48  48 100 SE8       30.08R VSB 1
6HR MIN TEMP:  48; 6HR MAX TEMP:  53;

PONTIAC        FOG       45  44  97 SE13      30.11S VSB 1/2
6HR MIN TEMP:  43; 6HR MAX TEMP:  46;

RANTOUL        DRZL/FOG  46  46 100 SE8       30.14S VSB 1/4
6HR MIN TEMP:  46; 6HR MAX TEMP:  48;

SPRINGFIELD    CLOUDY    52  50  93 SE13      30.07S FOG
6HR MIN TEMP:  51; 6HR MAX TEMP:  52;

TAYLORVILLE    FOG       50  50 100 SE10      30.08F VSB 1/2
6HR MIN TEMP:  49; 6HR MAX TEMP:  50;

$$

...REGIONAL REPORTS...


CITY           SKY/WX    TMP DP  RH WIND       PRES   REMARKS
CHICAGO O`HARE CLOUDY    46  43  89 S6        30.12R FOG
KANKAKEE       CLOUDY    43  42  97 CALM      30.14S FOG
MOLINE         PTCLDY    51  47  86 SE8       30.00F FOG
MOUNT STERLING CLOUDY    50  49  97 SE9       30.01S FOG
MOUNT VERNON   MOCLDY    49  48  97 E6        30.11S FOG
PITTSFIELD     MOCLDY    51  50  97 SE9       30.02S FOG
QUINCY         CLOUDY    53  51  93 SE10      29.98S FOG
ROCKFORD       CLOUDY    46  43  89 SE6       30.10S FOG
$$


CITY           SKY/WX    TMP DP  RH WIND       PRES   REMARKS
BURLINGTON     CLOUDY    53  52  96 S13       29.99S FOG
CEDAR RAPIDS   CLOUDY    51  50  96 SE10      29.94S FOG
DES MOINES     CLOUDY    60  53  77 SE10      29.85F
KIRKSVILLE     CLOUDY    56  54  93 SE10      29.93F
OTTUMWA        CLOUDY    56  53  90 SE12      29.92S
ST LOUIS       CLOUDY    53  50  89 SE9       30.04S
$$


CITY           SKY/WX    TMP DP  RH WIND       PRES   REMARKS
TERRE HAUTE    FOG       37  36  96 E3        30.17S VSB 1/4
EVANSVILLE     FOG       43  41  93 NE5       30.16S VSB 1
INDIANAPOLIS   FOG       42  41  96 SE6       30.19R VSB 1/4
LAFAYETTE      CLOUDY    42  42 100 E3        30.17R FOG
MADISON        MOCLDY    43  38  82 SE6       30.06S
MILWAUKEE      MOCLDY    38  32  79 CALM      30.13R
$$






USA.gov is the U.S. government's official web portal to all federal, state and local government web resources and services.